| time (UTC) | temp F | wind direction | speed MPH | gust MPH | rain 1hr in | rain 24hr in | rain mn in | humidity % | barometer mb |
| 20260905235355 | 79 | 13 | 1.0 | 0.0 | 186.71 | 0.00 | 1.22 | 77 | 1014.1 |
| 20260905234855 | 79 | 312 | 1.0 | 0.0 | 186.71 | 0.00 | 1.22 | 76 | 1014.1 |
| 20260905233355 | 80 | 336 | 5.0 | 0.0 | 186.71 | 0.00 | 1.22 | 75 | 1014.0 |
| 20260905232858 | 80 | 359 | 0.0 | 0.0 | 186.71 | 0.00 | 1.22 | 75 | 1014.0 |
| 20260905232355 | 80 | 359 | 0.0 | 0.0 | 186.71 | 0.00 | 1.22 | 74 | 1014.0 |
| 20260905232305 | 80 | 359 | 0.0 | 0.0 | 186.71 | 0.00 | 1.22 | 73 | 1013.9 |
| 20260905231855 | 80 | 359 | 0.0 | 0.0 | 186.71 | 0.00 | 1.22 | 73 | 1013.9 |
| 20260905231356 | 80 | 359 | 0.0 | 0.0 | 186.71 | 0.00 | 1.22 | 72 | 1013.7 |
| 20260905230355 | 81 | 359 | 0.0 | 0.0 | 186.71 | 0.00 | 1.22 | 72 | 1013.5 |
| 20260905225855 | 81 | 359 | 0.0 | 0.0 | 186.71 | 0.00 | 1.22 | 74 | 1013.4 |
| 20260905225502 | 82 | 359 | 0.0 | 0.0 | 186.71 | 0.00 | 1.22 | 74 | 1013.1 |
| 20260905225355 | 82 | 359 | 0.0 | 0.0 | 186.71 | 0.00 | 1.22 | 73 | 1013.2 |
| 20260905224855 | 82 | 359 | 0.0 | 0.0 | 186.71 | 0.00 | 1.22 | 74 | 1013.1 |
| 20260905224355 | 81 | 359 | 0.0 | 0.0 | 186.71 | 0.00 | 1.22 | 74 | 1013.2 |
| 20260905223855 | 81 | 359 | 0.0 | 0.0 | 186.71 | 0.00 | 1.22 | 77 | 1013.1 |
| 20260905223357 | 81 | 359 | 0.0 | 0.0 | 186.71 | 0.00 | 1.22 | 77 | 1013.2 |
| 20260905222855 | 81 | 359 | 0.0 | 0.0 | 186.71 | 0.00 | 1.22 | 76 | 1013.1 |
| 20260905221855 | 81 | 359 | 0.0 | 0.0 | 186.71 | 0.00 | 1.22 | 72 | 1013.0 |
| 20260905220355 | 81 | 359 | 0.0 | 0.0 | 186.71 | 0.00 | 1.22 | 73 | 1013.2 |
| 20260905215929 | 81 | 359 | 0.0 | 0.0 | 186.71 | 0.00 | 1.22 | 73 | 1013.3 |
| 20260905215855 | 81 | 359 | 0.0 | 0.0 | 186.71 | 0.00 | 1.22 | 73 | 1013.3 |
| 20260905215355 | 81 | 359 | 0.0 | 0.0 | 186.71 | 0.00 | 1.22 | 72 | 1013.2 |
| 20260905214855 | 81 | 359 | 0.0 | 0.0 | 186.71 | 0.00 | 1.22 | 71 | 1013.2 |
| 20260905214355 | 81 | 359 | 0.0 | 0.0 | 186.71 | 0.00 | 1.22 | 71 | 1013.2 |
| 20260905213855 | 81 | 359 | 0.0 | 0.0 | 186.71 | 0.00 | 1.22 | 71 | 1013.3 |
| 20260905212857 | 81 | 359 | 0.0 | 0.0 | 186.71 | 0.00 | 1.22 | 69 | 1013.2 |
| 20260905212355 | 81 | 359 | 0.0 | 0.0 | 186.71 | 0.00 | 1.22 | 69 | 1013.2 |
| 20260905211855 | 81 | 359 | 0.0 | 0.0 | 186.71 | 0.00 | 1.22 | 69 | 1013.2 |
| 20260905211356 | 81 | 359 | 0.0 | 0.0 | 186.71 | 0.00 | 1.22 | 69 | 1013.2 |
| 20260905210855 | 81 | 359 | 0.0 | 0.0 | 186.71 | 0.00 | 1.22 | 69 | 1013.2 |
| 20260905210355 | 82 | 359 | 0.0 | 0.0 | 186.71 | 0.00 | 1.22 | 68 | 1013.3 |
| 20260905205855 | 82 | 359 | 0.0 | 0.0 | 186.71 | 0.00 | 1.22 | 68 | 1013.3 |
| 20260905205355 | 82 | 359 | 0.0 | 0.0 | 186.71 | 0.00 | 1.22 | 68 | 1013.3 |
| 20260905204855 | 82 | 359 | 0.0 | 0.0 | 186.71 | 0.00 | 1.22 | 67 | 1013.3 |
| 20260905204355 | 82 | 359 | 0.0 | 0.0 | 186.71 | 0.00 | 1.22 | 66 | 1013.4 |
| 20260905203856 | 83 | 359 | 0.0 | 0.0 | 186.71 | 0.00 | 1.22 | 66 | 1013.4 |
| 20260905203355 | 83 | 359 | 0.0 | 0.0 | 186.71 | 0.00 | 1.22 | 67 | 1013.5 |
| 20260905202855 | 83 | 359 | 0.0 | 0.0 | 186.71 | 0.00 | 1.22 | 67 | 1013.4 |
| 20260905202355 | 83 | 359 | 0.0 | 0.0 | 186.71 | 0.00 | 1.22 | 66 | 1013.4 |
| 20260905201855 | 83 | 359 | 0.0 | 0.0 | 186.71 | 0.00 | 1.22 | 65 | 1013.6 |
| 20260905201355 | 83 | 359 | 0.0 | 0.0 | 186.71 | 0.00 | 1.22 | 66 | 1013.6 |
| 20260905200855 | 83 | 359 | 0.0 | 0.0 | 186.71 | 0.00 | 1.22 | 66 | 1013.6 |
| 20260905200355 | 82 | 359 | 0.0 | 0.0 | 186.71 | 0.00 | 1.22 | 68 | 1013.7 |
| 20260905195855 | 82 | 359 | 0.0 | 0.0 | 186.71 | 0.00 | 1.22 | 66 | 1013.8 |
| 20260905195355 | 82 | 359 | 0.0 | 0.0 | 186.71 | 0.00 | 1.22 | 67 | 1013.8 |
| 20260905194855 | 82 | 359 | 0.0 | 0.0 | 186.71 | 0.00 | 1.22 | 67 | 1013.8 |
| 20260905194355 | 82 | 359 | 0.0 | 0.0 | 186.71 | 0.00 | 1.22 | 66 | 1013.9 |
| 20260905193856 | 82 | 359 | 0.0 | 0.0 | 186.71 | 0.00 | 1.22 | 66 | 1013.9 |
| 20260905193356 | 83 | 359 | 0.0 | 0.0 | 186.71 | 0.00 | 1.22 | 67 | 1014.0 |
| 20260905192855 | 82 | 359 | 0.0 | 0.0 | 186.71 | 0.00 | 1.22 | 68 | 1013.9 |
| 20260905192355 | 82 | 359 | 0.0 | 0.0 | 186.71 | 0.00 | 1.22 | 66 | 1014.0 |
| 20260905191855 | 82 | 359 | 0.0 | 0.0 | 186.71 | 0.00 | 1.22 | 68 | 1014.0 |
| 20260905191355 | 82 | 359 | 0.0 | 0.0 | 186.71 | 0.00 | 1.22 | 70 | 1014.1 |
| 20260905190855 | 81 | 359 | 0.0 | 0.0 | 186.71 | 0.00 | 1.22 | 70 | 1014.1 |
| 20260905190355 | 81 | 359 | 0.0 | 0.0 | 186.71 | 0.00 | 1.22 | 70 | 1014.2 |
| 20260905185855 | 81 | 359 | 0.0 | 0.0 | 186.71 | 0.00 | 1.22 | 70 | 1014.2 |
| 20260905185354 | 80 | 359 | 0.0 | 0.0 | 186.71 | 0.00 | 1.22 | 70 | 1014.4 |
| 20260905184355 | 81 | 359 | 0.0 | 0.0 | 186.71 | 0.00 | 1.22 | 69 | 1014.5 |
| 20260905183355 | 81 | 359 | 0.0 | 0.0 | 186.71 | 0.00 | 1.22 | 69 | 1014.6 |
| 20260905182854 | 81 | 359 | 0.0 | 0.0 | 186.71 | 0.00 | 1.22 | 69 | 1014.5 |
| 20260905182355 | 81 | 359 | 0.0 | 0.0 | 186.71 | 0.00 | 1.22 | 70 | 1014.5 |
| 20260905181856 | 81 | 359 | 0.0 | 0.0 | 186.71 | 0.00 | 1.22 | 70 | 1014.4 |
| 20260905181354 | 81 | 359 | 0.0 | 0.0 | 186.71 | 0.00 | 1.22 | 69 | 1014.4 |
| 20260905180854 | 81 | 359 | 0.0 | 0.0 | 186.71 | 0.00 | 1.22 | 70 | 1014.4 |
| 20260905180355 | 81 | 359 | 0.0 | 0.0 | 186.71 | 0.00 | 1.22 | 70 | 1014.4 |
| 20260905175854 | 81 | 359 | 0.0 | 0.0 | 186.71 | 0.00 | 1.22 | 70 | 1014.5 |
| 20260905175354 | 81 | 359 | 0.0 | 0.0 | 186.71 | 0.00 | 1.22 | 71 | 1014.5 |
| 20260905174855 | 80 | 359 | 0.0 | 0.0 | 186.71 | 0.00 | 1.22 | 72 | 1014.5 |
| 20260905174354 | 80 | 359 | 0.0 | 0.0 | 186.71 | 0.00 | 1.22 | 71 | 1014.5 |
| 20260905173854 | 80 | 359 | 0.0 | 0.0 | 186.71 | 0.00 | 1.22 | 71 | 1014.5 |
| 20260905173355 | 80 | 359 | 0.0 | 0.0 | 186.71 | 0.00 | 1.22 | 72 | 1014.5 |
| 20260905172854 | 79 | 359 | 0.0 | 0.0 | 186.71 | 0.00 | 1.22 | 72 | 1014.5 |
| 20260905172354 | 79 | 359 | 0.0 | 0.0 | 186.71 | 0.00 | 1.22 | 72 | 1014.6 |
| 20260905171855 | 79 | 359 | 0.0 | 0.0 | 186.71 | 0.00 | 1.22 | 72 | 1014.7 |
| 20260905171354 | 79 | 359 | 0.0 | 0.0 | 186.71 | 0.00 | 1.22 | 73 | 1014.7 |
| 20260905170854 | 79 | 359 | 0.0 | 0.0 | 186.71 | 0.00 | 1.22 | 73 | 1014.7 |
| 20260905170355 | 79 | 359 | 0.0 | 0.0 | 186.71 | 0.00 | 1.22 | 73 | 1014.7 |
| 20260905165854 | 79 | 359 | 0.0 | 0.0 | 186.71 | 0.00 | 1.22 | 72 | 1014.8 |
| 20260905165354 | 79 | 359 | 0.0 | 0.0 | 186.71 | 0.00 | 1.22 | 73 | 1014.7 |
| 20260905164855 | 78 | 359 | 0.0 | 0.0 | 186.71 | 0.00 | 1.22 | 72 | 1014.7 |
| 20260905164354 | 78 | 359 | 0.0 | 0.0 | 186.71 | 0.00 | 1.22 | 75 | 1014.7 |
| 20260905163854 | 78 | 359 | 0.0 | 0.0 | 186.71 | 0.00 | 1.22 | 75 | 1014.7 |
| 20260905163356 | 78 | 359 | 0.0 | 0.0 | 186.71 | 0.00 | 1.22 | 73 | 1014.7 |
| 20260905162854 | 77 | 359 | 0.0 | 0.0 | 186.71 | 0.00 | 1.22 | 75 | 1014.6 |
| 20260905162354 | 77 | 359 | 0.0 | 0.0 | 186.71 | 0.00 | 1.22 | 75 | 1014.6 |
| 20260905161855 | 77 | 359 | 0.0 | 0.0 | 186.71 | 0.00 | 1.22 | 76 | 1014.7 |
| 20260905161354 | 77 | 359 | 0.0 | 0.0 | 186.71 | 0.00 | 1.22 | 77 | 1014.8 |
| 20260905160854 | 76 | 359 | 0.0 | 0.0 | 186.71 | 0.00 | 1.22 | 78 | 1014.8 |
| 20260905160355 | 76 | 359 | 0.0 | 0.0 | 186.71 | 0.00 | 1.22 | 80 | 1014.7 |
| 20260905155854 | 76 | 359 | 0.0 | 0.0 | 186.71 | 0.00 | 1.22 | 81 | 1014.6 |
| 20260905155354 | 75 | 359 | 0.0 | 0.0 | 186.71 | 0.00 | 1.22 | 82 | 1014.7 |
| 20260905152357 | 74 | 233 | 1.0 | 0.0 | 186.71 | 0.00 | 1.22 | 89 | 1014.5 |
| 20260905150357 | 72 | 249 | 0.0 | 0.0 | 186.71 | 0.00 | 1.22 | 91 | 1014.4 |
| 20260905145855 | 71 | 249 | 0.0 | 0.0 | 186.71 | 0.00 | 1.22 | 91 | 1014.4 |
| 20260905144855 | 71 | 249 | 0.0 | 0.0 | 186.71 | 0.00 | 1.22 | 92 | 1014.3 |
| 20260905144355 | 71 | 249 | 0.0 | 0.0 | 186.71 | 0.00 | 1.22 | 92 | 1014.2 |
| 20260905143854 | 71 | 249 | 0.0 | 0.0 | 186.71 | 0.00 | 1.22 | 92 | 1014.3 |
| 20260905142356 | 70 | 249 | 0.0 | 0.0 | 186.71 | 0.00 | 1.22 | 92 | 1014.1 |
| 20260905140855 | 70 | 249 | 0.0 | 0.0 | 186.71 | 0.00 | 1.22 | 93 | 1013.9 |
| 20260905135854 | 70 | 249 | 0.0 | 0.0 | 186.71 | 0.00 | 1.22 | 93 | 1014.0 |
| 20260905134854 | 70 | 249 | 0.0 | 0.0 | 186.71 | 0.00 | 1.22 | 93 | 1014.1 |
| 20260905134148 | 69 | 249 | 0.0 | 0.0 | 186.71 | 0.00 | 1.22 | 93 | 1014.3 |
| 20260905133855 | 69 | 249 | 0.0 | 0.0 | 186.71 | 0.00 | 1.22 | 93 | 1014.3 |
| 20260905132355 | 69 | 249 | 0.0 | 0.0 | 186.71 | 0.00 | 1.22 | 93 | 1014.3 |
| 20260905131854 | 69 | 249 | 0.0 | 0.0 | 186.71 | 0.00 | 1.22 | 93 | 1014.4 |
| 20260905131354 | 69 | 249 | 0.0 | 0.0 | 186.71 | 0.00 | 1.22 | 93 | 1014.5 |
| 20260905131112 | 69 | 249 | 0.0 | 0.0 | 186.71 | 0.00 | 1.22 | 93 | 1014.4 |
| 20260905130857 | 69 | 249 | 0.0 | 0.0 | 186.71 | 0.00 | 1.22 | 93 | 1014.4 |
| 20260905125854 | 69 | 249 | 0.0 | 0.0 | 186.71 | 0.00 | 1.22 | 93 | 1014.3 |
| 20260905125354 | 69 | 249 | 0.0 | 0.0 | 186.71 | 0.00 | 1.22 | 93 | 1014.2 |
| 20260905124855 | 69 | 249 | 0.0 | 0.0 | 186.71 | 0.00 | 1.22 | 93 | 1014.1 |
| 20260905124356 | 69 | 249 | 0.0 | 0.0 | 186.71 | 0.00 | 1.22 | 93 | 1014.1 |
| 20260905122854 | 70 | 125 | 0.0 | 0.0 | 186.71 | 0.00 | 1.22 | 93 | 1014.5 |
| 20260905122354 | 69 | 125 | 0.0 | 0.0 | 186.71 | 0.00 | 1.22 | 93 | 1014.4 |
| 20260905121354 | 69 | 125 | 0.0 | 0.0 | 186.71 | 0.00 | 1.22 | 93 | 1014.7 |
| 20260905120854 | 69 | 294 | 0.0 | 0.0 | 186.71 | 0.00 | 1.22 | 93 | 1014.9 |
| 20260905120354 | 69 | 294 | 0.0 | 0.0 | 186.71 | 0.00 | 1.22 | 93 | 1014.9 |
| 20260905115854 | 69 | 294 | 0.0 | 0.0 | 186.71 | 0.00 | 1.22 | 93 | 1015.0 |
| 20260905114355 | 69 | 294 | 0.0 | 0.0 | 186.71 | 0.00 | 1.22 | 93 | 1014.9 |
| 20260905113354 | 69 | 214 | 0.0 | 0.0 | 186.70 | 0.00 | 1.21 | 93 | 1014.0 |
| 20260905112854 | 69 | 103 | 0.0 | 0.0 | 186.69 | 0.00 | 1.20 | 93 | 1014.1 |
| 20260905112355 | 69 | 155 | 4.0 | 0.0 | 186.69 | 0.00 | 1.20 | 93 | 1014.3 |
| 20260905111854 | 69 | 290 | 3.0 | 0.0 | 186.67 | 0.00 | 1.18 | 93 | 1014.3 |
| 20260905111354 | 69 | 278 | 1.0 | 0.0 | 186.67 | 0.00 | 1.18 | 93 | 1014.1 |
| 20260905110854 | 69 | 141 | 0.0 | 0.0 | 186.66 | 0.00 | 1.17 | 92 | 1014.1 |
| 20260905105925 | 69 | 297 | 0.0 | 0.0 | 186.63 | 0.00 | 1.14 | 92 | 1015.2 |
| 20260905105854 | 69 | 297 | 0.0 | 0.0 | 186.63 | 0.00 | 1.14 | 92 | 1015.2 |
| 20260905105428 | 69 | 297 | 0.0 | 0.0 | 186.61 | 0.00 | 1.12 | 92 | 1015.3 |
| 20260905105354 | 69 | 297 | 0.0 | 0.0 | 186.61 | 0.00 | 1.12 | 92 | 1015.3 |
| 20260905104854 | 70 | 297 | 0.0 | 0.0 | 186.60 | 0.00 | 1.11 | 92 | 1015.4 |
| 20260905104354 | 70 | 297 | 0.0 | 0.0 | 186.59 | 0.00 | 1.10 | 92 | 1015.9 |
| 20260905103935 | 70 | 295 | 1.0 | 0.0 | 186.58 | 0.00 | 1.09 | 92 | 1016.1 |
| 20260905103855 | 70 | 295 | 1.0 | 0.0 | 186.58 | 0.00 | 1.09 | 92 | 1016.1 |
| 20260905103342 | 70 | 325 | 3.0 | 0.0 | 186.54 | 0.00 | 1.05 | 92 | 1016.0 |
| 20260905102854 | 70 | 325 | 3.0 | 0.0 | 186.54 | 0.00 | 1.05 | 92 | 1016.0 |
| 20260905101854 | 70 | 23 | 2.0 | 0.0 | 186.51 | 0.00 | 1.02 | 92 | 1016.0 |
| 20260905101354 | 70 | 18 | 0.0 | 0.0 | 186.50 | 0.00 | 1.01 | 92 | 1016.0 |
| 20260905101202 | 70 | 253 | 0.0 | 0.0 | 186.49 | 0.00 | 1.00 | 92 | 1016.0 |
| 20260905100854 | 70 | 318 | 3.0 | 0.0 | 186.49 | 0.00 | 1.00 | 92 | 1016.2 |
| 20260905100354 | 70 | 253 | 0.0 | 0.0 | 186.49 | 0.00 | 1.00 | 92 | 1016.0 |
| 20260905100134 | 70 | 263 | 4.0 | 0.0 | 186.48 | 0.00 | 0.99 | 92 | 1016.0 |
| 20260905095854 | 70 | 263 | 4.0 | 0.0 | 186.48 | 0.00 | 0.99 | 92 | 1016.0 |
| 20260905095354 | 70 | 287 | 3.0 | 0.0 | 186.46 | 0.00 | 0.97 | 92 | 1015.9 |
| 20260905094854 | 70 | 269 | 0.0 | 0.0 | 186.45 | 0.00 | 0.96 | 92 | 1015.7 |
| 20260905093854 | 69 | 115 | 2.0 | 0.0 | 186.41 | 0.00 | 0.92 | 92 | 1015.7 |
| 20260905092854 | 69 | 25 | 5.0 | 0.0 | 186.39 | 0.00 | 0.90 | 92 | 1015.8 |
| 20260905092354 | 69 | 25 | 2.0 | 0.0 | 186.39 | 0.00 | 0.90 | 92 | 1015.9 |
| 20260905091854 | 69 | 285 | 2.0 | 0.0 | 186.38 | 0.00 | 0.89 | 91 | 1016.0 |
| 20260905090856 | 70 | 150 | 6.0 | 0.0 | 186.27 | 0.00 | 0.78 | 91 | 1015.9 |
| 20260905090834 | 70 | 27 | 4.0 | 0.0 | 185.99 | 0.00 | 0.50 | 91 | 1013.6 |
| 20260905085854 | 70 | 142 | 3.0 | 0.0 | 186.02 | 0.00 | 0.53 | 91 | 1015.7 |
| 20260905085354 | 70 | 330 | 6.0 | 0.0 | 186.00 | 0.00 | 0.51 | 91 | 1014.8 |
| 20260905084854 | 70 | 27 | 4.0 | 0.0 | 185.99 | 0.00 | 0.50 | 91 | 1013.6 |
| 20260905084354 | 70 | 236 | 0.0 | 0.0 | 185.99 | 0.00 | 0.50 | 91 | 1014.1 |
| 20260905083854 | 70 | 273 | 4.0 | 0.0 | 185.98 | 0.00 | 0.49 | 91 | 1013.6 |
| 20260905083354 | 70 | 52 | 0.0 | 0.0 | 185.96 | 0.00 | 0.47 | 91 | 1013.8 |
| 20260905082854 | 70 | 321 | 2.0 | 0.0 | 185.94 | 0.00 | 0.45 | 91 | 1013.7 |
| 20260905082631 | 71 | 359 | 0.0 | 0.0 | 185.92 | 0.00 | 0.43 | 90 | 1014.3 |
| 20260905082354 | 71 | 267 | 2.0 | 0.0 | 185.93 | 0.00 | 0.44 | 91 | 1014.2 |
| 20260905081854 | 71 | 315 | 0.0 | 0.0 | 185.92 | 0.00 | 0.43 | 90 | 1014.4 |
| 20260905081354 | 71 | 359 | 0.0 | 0.0 | 185.92 | 0.00 | 0.43 | 90 | 1014.3 |
| 20260905080932 | 71 | 359 | 0.0 | 0.0 | 185.91 | 0.00 | 0.42 | 90 | 1014.3 |
| 20260905080854 | 71 | 359 | 0.0 | 0.0 | 185.91 | 0.00 | 0.42 | 90 | 1014.3 |
| 20260905080635 | 71 | 281 | 0.0 | 0.0 | 185.89 | 0.00 | 0.40 | 90 | 1014.5 |
| 20260905080354 | 71 | 359 | 0.0 | 0.0 | 185.90 | 0.00 | 0.41 | 90 | 1014.4 |
| 20260905075854 | 71 | 281 | 0.0 | 0.0 | 185.89 | 0.00 | 0.40 | 90 | 1014.5 |
| 20260905075354 | 71 | 281 | 0.0 | 0.0 | 185.88 | 0.00 | 0.39 | 90 | 1015.1 |
| 20260905075254 | 72 | 359 | 0.0 | 0.0 | 185.75 | 0.00 | 0.26 | 89 | 1014.9 |
| 20260905074354 | 72 | 359 | 0.0 | 0.0 | 185.81 | 0.00 | 0.32 | 89 | 1014.7 |
| 20260905073854 | 72 | 359 | 0.0 | 0.0 | 185.75 | 0.00 | 0.26 | 89 | 1014.9 |
| 20260905073354 | 72 | 359 | 0.0 | 0.0 | 185.68 | 0.00 | 0.19 | 89 | 1015.0 |
| 20260905072645 | 73 | 359 | 0.0 | 0.0 | 185.55 | 0.00 | 0.06 | 89 | 1014.8 |
| 20260905072354 | 73 | 359 | 0.0 | 0.0 | 185.55 | 0.00 | 0.06 | 89 | 1014.8 |
| 20260905072136 | 73 | 31 | 0.0 | 0.0 | 185.50 | 0.00 | 0.01 | 88 | 1014.8 |
| 20260905071854 | 73 | 31 | 0.0 | 0.0 | 185.50 | 0.00 | 0.01 | 88 | 1014.8 |
| 20260905071353 | 73 | 31 | 0.0 | 0.0 | 185.49 | 0.00 | 0.00 | 88 | 1014.4 |
| 20260905070854 | 73 | 31 | 0.0 | 0.0 | 185.49 | 0.00 | 0.00 | 88 | 1014.6 |
| 20260905065854 | 73 | 31 | 0.0 | 0.0 | 185.49 | 0.00 | 0.00 | 87 | 1014.3 |
| 20260905065354 | 73 | 31 | 0.0 | 0.0 | 185.49 | 0.00 | 0.00 | 87 | 1014.0 |
| 20260905064854 | 73 | 31 | 0.0 | 0.0 | 185.49 | 0.00 | 0.00 | 87 | 1014.0 |
| 20260905064005 | 73 | 31 | 0.0 | 0.0 | 185.49 | 0.00 | 0.00 | 87 | 1013.9 |
| 20260905063853 | 73 | 31 | 0.0 | 0.0 | 185.49 | 0.00 | 0.00 | 87 | 1013.9 |
| 20260905062854 | 73 | 31 | 0.0 | 0.0 | 185.49 | 0.00 | 0.00 | 87 | 1014.3 |
| 20260905062354 | 73 | 31 | 0.0 | 0.0 | 185.49 | 0.00 | 0.00 | 86 | 1014.4 |
| 20260905061948 | 73 | 31 | 0.0 | 0.0 | 185.49 | 0.00 | 0.00 | 86 | 1014.0 |
| 20260905061854 | 73 | 31 | 0.0 | 0.0 | 185.49 | 0.00 | 0.00 | 86 | 1014.0 |
| 20260905061353 | 73 | 31 | 0.0 | 0.0 | 185.49 | 0.00 | 0.00 | 86 | 1014.0 |
| 20260905060854 | 73 | 31 | 0.0 | 0.0 | 185.49 | 0.00 | 0.00 | 86 | 1014.2 |
| 20260905060354 | 73 | 31 | 0.0 | 0.0 | 185.49 | 0.00 | 0.00 | 86 | 1014.3 |
| 20260905055853 | 73 | 31 | 0.0 | 0.0 | 185.49 | 0.00 | 0.00 | 86 | 1014.3 |
| 20260905055353 | 73 | 31 | 0.0 | 0.0 | 185.49 | 0.00 | 0.00 | 86 | 1014.5 |
| 20260905054625 | 73 | 31 | 0.0 | 0.0 | 185.49 | 0.00 | 0.00 | 86 | 1014.6 |
| 20260905054353 | 73 | 31 | 0.0 | 0.0 | 185.49 | 0.00 | 0.00 | 86 | 1014.6 |
| 20260905053930 | 73 | 31 | 0.0 | 0.0 | 185.49 | 0.00 | 0.00 | 86 | 1014.5 |
| 20260905053853 | 73 | 31 | 0.0 | 0.0 | 185.49 | 0.00 | 0.00 | 86 | 1014.5 |
| 20260905053457 | 73 | 31 | 0.0 | 0.0 | 185.49 | 0.00 | 0.00 | 86 | 1014.4 |
| 20260905053354 | 73 | 31 | 0.0 | 0.0 | 185.49 | 0.00 | 0.00 | 86 | 1014.4 |
| 20260905052853 | 73 | 31 | 0.0 | 0.0 | 185.49 | 0.00 | 0.00 | 86 | 1014.4 |
| 20260905052647 | 73 | 31 | 0.0 | 0.0 | 185.49 | 0.00 | 0.00 | 86 | 1014.6 |
| 20260905052353 | 73 | 31 | 0.0 | 0.0 | 185.49 | 0.00 | 0.00 | 86 | 1014.6 |
| 20260905051353 | 73 | 31 | 0.0 | 0.0 | 185.49 | 0.00 | 0.00 | 86 | 1014.9 |
| 20260905045853 | 73 | 31 | 0.0 | 0.0 | 185.49 | 0.00 | 0.00 | 86 | 1015.0 |
| 20260905045353 | 73 | 31 | 0.0 | 0.0 | 185.49 | 0.00 | 0.00 | 86 | 1015.0 |
| 20260905044926 | 73 | 31 | 0.0 | 0.0 | 185.49 | 0.00 | 0.00 | 86 | 1015.0 |
| 20260905044854 | 73 | 31 | 0.0 | 0.0 | 185.49 | 0.00 | 0.00 | 86 | 1015.0 |
| 20260905044151 | 73 | 31 | 0.0 | 0.0 | 185.49 | 0.00 | 0.00 | 86 | 1015.0 |
| 20260905043853 | 73 | 31 | 0.0 | 0.0 | 185.49 | 0.00 | 0.00 | 86 | 1015.0 |
| 20260905043354 | 73 | 31 | 0.0 | 0.0 | 185.49 | 0.00 | 0.00 | 86 | 1015.1 |
| 20260905042854 | 74 | 31 | 0.0 | 0.0 | 185.49 | 0.00 | 0.10 | 86 | 1015.2 |
| 20260905042353 | 74 | 31 | 0.0 | 0.0 | 185.49 | 0.00 | 0.10 | 85 | 1015.3 |
| 20260905041353 | 74 | 31 | 0.0 | 0.0 | 185.49 | 0.00 | 0.10 | 85 | 1015.4 |
| 20260905040928 | 74 | 31 | 0.0 | 0.0 | 185.49 | 0.00 | 0.10 | 85 | 1015.4 |
| 20260905040853 | 74 | 31 | 0.0 | 0.0 | 185.49 | 0.00 | 0.10 | 85 | 1015.4 |
| 20260905035853 | 74 | 31 | 0.0 | 0.0 | 185.49 | 0.00 | 0.10 | 85 | 1015.4 |
| 20260905035353 | 74 | 31 | 0.0 | 0.0 | 185.49 | 0.00 | 0.10 | 85 | 1015.5 |
| 20260905034854 | 74 | 31 | 0.0 | 0.0 | 185.49 | 0.00 | 0.10 | 85 | 1015.5 |
| 20260905034448 | 74 | 31 | 0.0 | 0.0 | 185.49 | 0.00 | 0.10 | 85 | 1015.5 |
| 20260905033853 | 74 | 31 | 0.0 | 0.0 | 185.49 | 0.00 | 0.10 | 85 | 1015.5 |
| 20260905032853 | 74 | 31 | 0.0 | 0.0 | 185.49 | 0.00 | 0.10 | 85 | 1015.4 |
| 20260905031507 | 74 | 31 | 0.0 | 0.0 | 185.49 | 0.00 | 0.10 | 85 | 1015.4 |
| 20260905031353 | 74 | 31 | 0.0 | 0.0 | 185.49 | 0.00 | 0.10 | 85 | 1015.4 |
| 20260905030149 | 75 | 31 | 0.0 | 0.0 | 185.49 | 0.00 | 0.10 | 84 | 1015.5 |
| 20260905025853 | 75 | 31 | 0.0 | 0.0 | 185.49 | 0.00 | 0.10 | 84 | 1015.5 |
| 20260905025353 | 75 | 31 | 0.0 | 0.0 | 185.49 | 0.00 | 0.10 | 84 | 1015.5 |
| 20260905023854 | 75 | 31 | 0.0 | 0.0 | 185.49 | 0.00 | 0.10 | 84 | 1015.5 |
| 20260905022902 | 75 | 31 | 0.0 | 0.0 | 185.49 | 0.00 | 0.10 | 84 | 1015.7 |
| 20260905022853 | 75 | 31 | 0.0 | 0.0 | 185.49 | 0.00 | 0.10 | 84 | 1015.7 |
| 20260905022355 | 75 | 31 | 0.0 | 0.0 | 185.49 | 0.00 | 0.10 | 84 | 1015.7 |
| 20260905022159 | 75 | 31 | 0.0 | 0.0 | 185.49 | 0.00 | 0.10 | 84 | 1015.5 |
| 20260905021853 | 75 | 31 | 0.0 | 0.0 | 185.49 | 0.00 | 0.10 | 84 | 1015.5 |
| 20260905021502 | 75 | 31 | 0.0 | 0.0 | 185.49 | 0.00 | 0.10 | 83 | 1015.5 |
| 20260905021353 | 75 | 31 | 0.0 | 0.0 | 185.49 | 0.00 | 0.10 | 83 | 1015.5 |
| 20260905021002 | 76 | 31 | 0.0 | 0.0 | 185.49 | 0.00 | 0.10 | 83 | 1015.5 |
| 20260905020853 | 76 | 31 | 0.0 | 0.0 | 185.49 | 0.00 | 0.10 | 83 | 1015.5 |
| 20260905015853 | 76 | 31 | 0.0 | 0.0 | 185.49 | 0.00 | 0.10 | 83 | 1015.5 |
| 20260905014854 | 76 | 31 | 0.0 | 0.0 | 185.49 | 0.00 | 0.10 | 82 | 1015.4 |
| 20260905013353 | 76 | 31 | 0.0 | 0.0 | 185.49 | 0.00 | 0.10 | 82 | 1015.4 |
| 20260905013259 | 77 | 31 | 0.0 | 0.0 | 185.49 | 0.00 | 0.10 | 82 | 1015.3 |
| 20260905012853 | 77 | 31 | 0.0 | 0.0 | 185.49 | 0.00 | 0.10 | 82 | 1015.3 |
| 20260905012212 | 78 | 31 | 0.0 | 0.0 | 185.49 | 0.00 | 0.10 | 79 | 1015.1 |
| 20260905011353 | 77 | 31 | 0.0 | 0.0 | 185.49 | 0.00 | 0.10 | 81 | 1015.3 |
| 20260905010853 | 77 | 31 | 0.0 | 0.0 | 185.49 | 0.00 | 0.10 | 81 | 1015.3 |
| 20260905005853 | 78 | 31 | 0.0 | 0.0 | 185.49 | 0.00 | 0.10 | 80 | 1015.2 |
| 20260905005353 | 78 | 31 | 0.0 | 0.0 | 185.49 | 0.00 | 0.10 | 79 | 1015.1 |
| 20260905004854 | 78 | 31 | 0.0 | 0.0 | 185.49 | 0.00 | 0.10 | 79 | 1015.1 |
| 20260905004353 | 78 | 31 | 0.0 | 0.0 | 185.49 | 0.00 | 0.10 | 80 | 1015.0 |
| 20260905003853 | 78 | 31 | 0.0 | 0.0 | 185.49 | 0.00 | 0.10 | 80 | 1015.0 |
| 20260905002939 | 79 | 31 | 0.0 | 0.0 | 185.49 | 0.00 | 0.10 | 79 | 1015.1 |
| 20260905002854 | 79 | 31 | 0.0 | 0.0 | 185.49 | 0.00 | 0.10 | 79 | 1015.1 |
| 20260905001853 | 79 | 31 | 0.0 | 0.0 | 185.49 | 0.00 | 0.10 | 78 | 1015.1 |
| 20260905001353 | 80 | 31 | 0.0 | 0.0 | 185.49 | 0.00 | 0.10 | 77 | 1015.0 |
| 20260905000853 | 80 | 31 | 0.0 | 0.0 | 185.49 | 0.00 | 0.10 | 77 | 1015.0 |
| 20260905000402 | 80 | 31 | 0.0 | 0.0 | 185.49 | 0.00 | 0.10 | 76 | 1015.0 |
| 20260904235854 | 80 | 31 | 0.0 | 0.0 | 185.49 | 0.00 | 0.10 | 76 | 1014.9 |